x

9441102 - Westport, Wa (wptw1) Weather Station

3:36 - Thu 23rd Mar 2017 All times are PDT. -7 hours from GMT.

  • Wind
    8mph, 13mph gusts
  • Sea Temp 49°f
  • Luft Temp 51°f
  • Sea Pressure 1012.8mb
  • 9441102 - Westport, Wa
  • 9441102 - Westport, Wa

More Historic Weather Station data

Upgrade to MSW Pro to gain access to the past 30 days of data for over 8000 Wavebouys and Weather Stations around the globe.

Join Pro

Comparision Forecast

View Surf forecast
   
Do 03/23 3:36 8 13 mph 1012.8mb 49f 51f
3:30 10 13 mph 1012.9mb 49f 50f
3:24 9 13 mph 1012.9mb 49f 50f
3:18 10 14 mph 1012.9mb 49f 50f
3:12 9 13 mph 1012.9mb 49f 50f
3:06 10 14 mph 1012.9mb 49f 50f
3:00 11 14 mph 1013.1mb 49f 50f
2:36 7 10 mph 1013.6mb 49f 50f
2:30 7 13 mph 1013.8mb 49f 50f
2:24 9 15 mph 1013.7mb 49f 50f
2:18 10 14 mph 1013.7mb 49f 49f
2:12 9 14 mph 1014mb 49f 49f
2:06 9 13 mph 1014.1mb 49f 49f
2:00 11 14 mph 1014.4mb 49f 49f
1:36 11 22 mph 1014.6mb 49f 50f
1:30 11 17 mph 1014.7mb 49f 50f
1:24 13 18 mph 1014.8mb 49f 50f
1:18 10 17 mph 1014.9mb 49f 50f
1:12 11 20 mph 1014.9mb 49f 50f
1:06 15 22 mph 1014.9mb 49f 50f
1:00 11 18 mph 1015mb 49f 50f
12:36 15 21 mph 1015.2mb 49f 49f
12:30 15 21 mph 1015.3mb 49f 50f
12:24 15 20 mph 1015.3mb 49f 49f
12:18 14 23 mph 1015.4mb 49f 49f
12:12 16 21 mph 1015.5mb 49f 49f
12:06 13 18 mph 1015.5mb 49f 49f
12:00 9 16 mph 1015.7mb 49f 49f
11:36 10 20 mph 1015.9mb 49f 48f
11:30 13 17 mph 1015.9mb 49f 48f
11:24 11 21 mph 1016mb 49f 47f
11:18 13 17 mph 1016mb 49f 47f
11:12 13 17 mph 1016.2mb 49f 47f
11:06 11 16 mph 1016.2mb 49f 47f
11:00 11 17 mph 1016.2mb 49f 46f
10:36 11 16 mph 1016.5mb 49f 46f
10:30 11 15 mph 1016.5mb 49f 46f
10:24 11 17 mph 1016.4mb 49f 46f
10:18 13 17 mph 1016.4mb 49f 46f
10:12 11 22 mph 1016.5mb 49f 45f
10:06 11 17 mph 1016.5mb 49f 45f
10:00 11 16 mph 1016.5mb 49f 45f
9:36 11 16 mph 1016.8mb 49f 44f
9:30 10 14 mph 1016.8mb 49f 44f
9:24 9 16 mph 1016.9mb 49f 44f
9:18 10 16 mph 1016.7mb 49f 44f
9:12 11 15 mph 1016.7mb 49f 44f
9:06 11 15 mph 1016.9mb 49f 44f
9:00 9 14 mph 1016.9mb 49f 44f
8:36 10 15 mph 1017mb 49f 43f
8:30 11 16 mph 1017mb 49f 43f
8:24 11 15 mph 1017.1mb 49f 43f
8:18 10 14 mph 1017.1mb 49f 43f
8:12 9 14 mph 1017.1mb 49f 43f
8:06 10 16 mph 1017mb 49f 43f
8:00 9 15 mph 1017mb 49f 43f
7:36 11 15 mph 1016.9mb 49f 42f
7:30 11 15 mph 1017mb 49f 42f
7:24 11 15 mph 1017mb 49f 42f
7:18 10 14 mph 1017.1mb 49f 42f
7:12 9 14 mph 1017.1mb 49f 42f
7:06 8 16 mph 1017.2mb 49f 42f
7:00 8 13 mph 1017.2mb 49f 42f
6:36 9 13 mph 1017.4mb 49f 42f
6:30 10 13 mph 1017.5mb 49f 42f
6:24 9 13 mph 1017.6mb 49f 42f
6:18 8 14 mph 1017.6mb 49f 42f
6:12 9 13 mph 1017.6mb 49f 42f
6:06 8 14 mph 1017.6mb 49f 42f
6:00 9 13 mph 1017.7mb 49f 42f
5:36 8 11 mph 1017.5mb 49f 42f
5:30 9 13 mph 1017.6mb 49f 42f
5:24 8 13 mph 1017.5mb 49f 42f
5:18 9 14 mph 1017.6mb 49f 42f
5:12 9 13 mph 1017.7mb 49f 42f
5:06 8 11 mph 1017.6mb 49f 42f
5:00 7 13 mph 1017.6mb 49f 42f
4:36 8 13 mph 1017.7mb 49f 42f
4:30 9 14 mph 1017.6mb 49f 42f
4:24 8 10 mph 1017.7mb 49f 42f
4:18 8 11 mph 1017.7mb 49f 43f
4:12 8 13 mph 1017.8mb 49f 43f
4:06 8 10 mph 1017.7mb 49f 43f
4:00 8 11 mph 1017.8mb 49f 43f
3:36 9 11 mph 1017.8mb 49f 43f
3:30 7 11 mph 1017.8mb 49f 43f
3:24 8 11 mph 1017.9mb 49f 43f
3:18 8 11 mph 1017.9mb 49f 43f
3:12 9 13 mph 1018mb 49f 43f
3:06 8 11 mph 1018mb 49f 43f
3:00 9 13 mph 1018mb 49f 43f
2:36 8 10 mph 1018.1mb 49f 44f
2:30 7 9 mph 1018.1mb 49f 44f
2:24 7 9 mph 1018.1mb 49f 44f
2:18 8 10 mph 1018mb 49f 44f
2:12 6 8 mph 1018mb 49f 44f
2:06 7 9 mph 1018mb 49f 45f
2:00 6 8 mph 1018.1mb 49f 45f
1:36 7 11 mph 1018mb 49f 46f
1:30 8 13 mph 1018mb 49f 46f
1:24 9 11 mph 1018.1mb 49f 46f
1:18 9 11 mph 1018.1mb 49f 46f
1:12 10 11 mph 1018.2mb 49f 46f
1:06 9 13 mph 1018.1mb 49f 46f
1:00 10 14 mph 1018.2mb 49f 47f
12:36 13 15 mph 1018.3mb 49f 46f
12:30 10 15 mph 1018.3mb 49f 46f
12:24 9 13 mph 1018.3mb 49f 46f
12:18 11 14 mph 1018.3mb 49f 46f
12:12 10 14 mph 1018.3mb 49f 46f
12:06 9 13 mph 1018.3mb 49f 46f
12:00 13 17 mph 1018.3mb 49f 47f
Mi 03/22 11:36 9 15 mph 1018.1mb 49f 46f
11:30 11 15 mph 1018.1mb 49f 46f
11:24 10 14 mph 1018mb 49f 46f
11:18 10 15 mph 1018mb 49f 45f
11:12 10 18 mph 1018mb 49f 45f
11:06 16 20 mph 1018mb 49f 45f
11:00 13 17 mph 1018mb 49f 46f
10:36 8 13 mph 1017.6mb 49f 46f
10:30 8 13 mph 1017.6mb 49f 46f
10:24 11 15 mph 1017.6mb 49f 46f
10:18 11 16 mph 1017.6mb 49f 46f
10:12 13 15 mph 1017.6mb 49f 46f
10:06 10 15 mph 1017.6mb 49f 46f
10:00 9 13 mph 1017.7mb 49f 46f
9:36 13 17 mph 1017.6mb 49f 46f
9:30 14 17 mph 1017.6mb 49f 46f
9:24 11 17 mph 1017.6mb 49f 46f
9:18 10 17 mph 1017.6mb 49f 46f
9:12 14 18 mph 1017.6mb 49f 46f
9:06 16 18 mph 1017.4mb 49f 46f
9:00 16 20 mph 1017.3mb 49f 46f
8:36 15 18 mph 1017.2mb 49f 46f
8:30 16 18 mph 1017.2mb 49f 46f
8:24 15 18 mph 1017.1mb 49f 46f
8:18 13 20 mph 1017.1mb 49f 46f
8:12 16 20 mph 1017mb 49f 46f
8:06 13 18 mph 1017mb 49f 46f
8:00 9 18 mph 1017mb 49f 46f
7:36 16 21 mph 1016.8mb 49f 45f
7:30 16 21 mph 1016.8mb 49f 45f
7:24 16 21 mph 1016.8mb 49f 44f
7:18 20 23 mph 1016.7mb 49f 45f
7:12 20 24 mph 1016.7mb 49f 45f
7:06 17 20 mph 1016.5mb 49f 47f
7:00 14 17 mph 1016.6mb 49f 47f
6:36 18 24 mph 1016.5mb 49f 46f
6:30 17 22 mph 1016.4mb 49f 46f
6:24 16 21 mph 1016.3mb 49f 47f
6:18 15 20 mph 1016.3mb 49f 47f
6:12 17 20 mph 1016.3mb 49f 47f
6:06 15 18 mph 1016.3mb 49f 47f
6:00 17 21 mph 1016.3mb 49f 47f
5:36 22 25 mph 1016mb 49f 47f
5:30 20 23 mph 1015.9mb 49f 47f
5:24 18 24 mph 1015.9mb 49f 47f
5:18 20 25 mph 1015.8mb 49f 47f
5:12 22 24 mph 1015.7mb 49f 47f
5:06 20 25 mph 1015.6mb 49f 47f
5:00 21 25 mph 1015.6mb 49f 47f
4:36 23 26 mph 1015.2mb 49f 47f
4:30 21 24 mph 1015.1mb 49f 47f
4:24 22 24 mph 1014.9mb 49f 47f
4:18 22 25 mph 1014.8mb 49f 47f
4:12 21 25 mph 1014.8mb 49f 47f
4:06 22 23 mph 1014.7mb 49f 47f
4:00 21 28 mph 1014.7mb 49f 47f
3:54 24 29 mph 1014.6mb 49f 47f
3:48 24 28 mph 1014.4mb 49f 47f
3:36 18 26 mph 1014.2mb 49f 46f
3:30 18 22 mph 1014.1mb 49f 46f
3:24 21 24 mph 1014.1mb 49f 46f
3:18 22 26 mph 1014mb 49f 46f
3:12 22 28 mph 1013.9mb 49f 45f
3:06 25 29 mph 1013.8mb 49f 44f
3:00 26 31 mph 1013.7mb 49f 44f
2:54 25 29 mph 1013.6mb 49f 44f
2:48 28 38 mph 1013.4mb 49f 44f
2:36 26 31 mph 1013.1mb 49f 45f
2:30 26 31 mph 1012.9mb 49f 45f
2:24 26 34 mph 1012.8mb 49f 45f
2:18 32 37 mph 1012.6mb 49f 45f
2:12 24 29 mph 1012.4mb 49f 45f
2:06 30 33 mph 1012.3mb 49f 45f
2:00 31 36 mph 1012.1mb 49f 45f
1:54 26 31 mph 1012mb 49f 46f
1:48 29 32 mph 1011.9mb 49f 46f
1:36 28 31 mph 1011.5mb 49f 47f
1:30 26 31 mph 1011.3mb 49f 47f
1:24 28 32 mph 1011.2mb 49f 47f
1:18 26 31 mph 1011mb 49f 47f
1:12 28 32 mph 1010.9mb 49f 47f
1:06 28 34 mph 1010.7mb 49f 46f
1:00 26 31 mph 1010.5mb 49f 47f
12:36 16 22 mph 1010mb 49f 48f
12:30 18 26 mph 1009.9mb 49f 47f
12:24 15 23 mph 1009.8mb 49f 47f
12:18 17 28 mph 1009.7mb 49f 47f
12:12 15 23 mph 1009.7mb 49f 48f
12:06 17 24 mph 1009.7mb 49f 48f
12:00 16 25 mph 1009.7mb 49f 47f
11:54 21 28 mph 1009.6mb 49f 48f
11:48 20 29 mph 1009.6mb 49f 48f
11:36 17 26 mph 1009.5mb 49f 48f
11:30 16 26 mph 1009.4mb 49f 48f
11:24 20 29 mph 1009.3mb 49f 48f
11:18 15 24 mph 1009.3mb 49f 48f
11:12 20 28 mph 1009.3mb 49f 48f
11:06 16 25 mph 1009.1mb 49f 49f
11:00 17 23 mph 1009.1mb 49f 49f
10:54 13 21 mph 1009mb 49f 49f
10:48 14 22 mph 1008.9mb 49f 48f
10:36 16 22 mph 1008.8mb 49f 47f
10:30 15 25 mph 1008.7mb 49f 47f
10:24 13 21 mph 1008.6mb 49f 46f
10:18 16 25 mph 1008.5mb 49f 47f
10:12 16 25 mph 1008.4mb 49f 47f
10:06 15 24 mph 1008.3mb 49f 47f
10:00 14 21 mph 1008.4mb 49f 47f
9:54 15 26 mph 1008.4mb 49f 47f
9:48 13 18 mph 1008.3mb 49f 47f
9:36 11 18 mph 1008.1mb 49f 47f
9:30 11 23 mph 1008.1mb 49f 47f
9:24 11 20 mph 1008mb 49f 47f
9:18 11 18 mph 1008mb 49f 47f
9:12 13 17 mph 1007.9mb 49f 47f
9:06 14 20 mph 1007.9mb 49f 47f
9:00 11 17 mph 1007.8mb 49f 47f
8:54 10 21 mph 1007.8mb 49f 47f
8:48 11 21 mph 1007.7mb 49f 47f
8:36 14 22 mph 1007.7mb 49f 48f
8:30 11 18 mph 1007.6mb 49f 47f
8:24 11 18 mph 1007.6mb 49f 47f
8:18 11 18 mph 1007.5mb 49f 47f
8:12 11 16 mph 1007.5mb 49f 46f
8:06 10 18 mph 1007.5mb 49f 46f
8:00 10 21 mph 1007.5mb 49f 46f
7:54 13 20 mph 1007.5mb 49f 46f
7:48 13 18 mph 1007.4mb 49f 46f
7:36 16 25 mph 1007.3mb 49f 46f
7:30 16 25 mph 1007.3mb 49f 46f
7:24 18 30 mph 1007.3mb 49f 46f
7:18 11 17 mph 1007.2mb 49f 47f
7:12 13 20 mph 1007.1mb 49f 47f
7:06 14 21 mph 1007mb 49f 47f
7:00 14 20 mph 1007.1mb 49f 47f
6:54 15 20 mph 1007mb 49f 47f
6:48 14 23 mph 1007mb 49f 47f
6:36 16 24 mph 1006.9mb 49f 47f
6:30 14 21 mph 1006.8mb 49f 47f
6:24 15 24 mph 1006.9mb 49f 47f
6:18 15 24 mph 1006.8mb 49f 48f
6:12 15 23 mph 1006.8mb 49f 48f
6:06 16 23 mph 1006.7mb 49f 47f
6:00 17 22 mph 1006.6mb 49f 48f
5:54 16 25 mph 1006.6mb 49f 47f
5:48 16 23 mph 1006.4mb 49f 47f
5:36 14 21 mph 1006.3mb 49f 48f
5:30 14 23 mph 1006.2mb 49f 48f
5:24 15 21 mph 1006.2mb 49f 48f
5:18 13 22 mph 1006.2mb 49f 49f
5:12 15 21 mph 1006.1mb 49f 49f
5:06 14 21 mph 1006mb 49f 49f
5:00 14 23 mph 1006mb 49f 49f
4:54 15 22 mph 1006mb 49f 49f
4:48 17 24 mph 1005.9mb 49f 49f
4:36 15 25 mph 1005.8mb 49f 49f
4:30 16 24 mph 1005.7mb 49f 49f
4:24 16 22 mph 1005.6mb 49f 49f
4:18 17 25 mph 1005.5mb 49f 49f
4:12 18 28 mph 1005.4mb 49f 49f
4:06 17 28 mph 1005.3mb 49f 48f
4:00 21 28 mph 1005.2mb 49f 49f
3:54 18 28 mph 1005.2mb 49f 49f
3:48 21 29 mph 1005.1mb 49f 49f
3:36 20 29 mph 1004.9mb 49f 49f
3:30 17 26 mph 1004.9mb 49f 49f
3:24 16 24 mph 1004.8mb 49f 49f
3:18 17 26 mph 1004.7mb 49f 49f
3:12 20 31 mph 1004.7mb 49f 49f
3:06 20 30 mph 1004.6mb 49f 49f
3:00 20 30 mph 1004.5mb 49f 49f
2:54 20 29 mph 1004.4mb 49f 49f
2:48 18 33 mph 1004.3mb 49f 49f
2:36 23 32 mph 1004.1mb 49f 49f
2:30 20 30 mph 1004mb 49f 49f
2:24 20 33 mph 1004mb 49f 49f
2:18 23 34 mph 1003.9mb 49f 49f
2:12 18 31 mph 1003.8mb 49f 49f
2:06 17 26 mph 1003.8mb 49f 49f
2:00 13 21 mph 1003.9mb 49f 49f
1:54 11 16 mph 1003.7mb 49f 49f
1:48 13 16 mph 1003.5mb 49f 49f
1:36 13 16 mph 1003.7mb 49f 49f
1:30 9 14 mph 1003.5mb 49f 49f
1:24 13 18 mph 1003.4mb 49f 49f
1:18 16 21 mph 1003.3mb 49f 49f
1:12 16 20 mph 1003.5mb 49f 49f
1:06 13 17 mph 1003.5mb 49f 49f
1:00 13 17 mph 1003.6mb 49f 49f
12:54 10 13 mph 1003.9mb 49f 49f
12:48 11 14 mph 1003.9mb 49f 49f
12:36 11 15 mph 1004.1mb 49f 49f
12:30 10 14 mph 1004.2mb 49f 49f
12:24 10 13 mph 1004.4mb 49f 49f
12:18 9 11 mph 1004.6mb 49f 49f
12:12 8 10 mph 1004.6mb 49f 49f
12:06 8 10 mph 1004.6mb 49f 49f
12:00 8 9 mph 1004.7mb 49f 49f
Di 03/21 11:54 8 11 mph 1004.8mb 49f 49f
11:48 8 13 mph 1004.8mb 49f 49f
11:36 9 13 mph 1004.8mb 49f 50f
11:30 9 11 mph 1004.9mb 49f 50f
11:24 10 13 mph 1004.9mb 49f 50f
11:18 8 10 mph 1004.9mb 49f 50f
11:12 9 13 mph 1005mb 49f 50f
11:06 8 10 mph 1005mb 49f 50f
11:00 8 11 mph 1005.1mb 49f 50f
10:54 8 11 mph 1005.1mb 49f 51f
10:48 8 13 mph 1005.2mb 49f 51f
10:36 9 18 mph 1005.2mb 49f 52f
10:30 14 18 mph 1005.2mb 49f 52f
10:24 9 16 mph 1005.2mb 49f 52f
10:18 11 17 mph 1005.1mb 49f 52f
10:12 13 20 mph 1005.2mb 49f 52f
10:06 13 20 mph 1005.1mb 49f 52f
10:00 13 20 mph 1005mb 49f 51f
9:54 13 21 mph 1005mb 49f 51f
9:48 11 20 mph 1005mb 49f 51f
9:36 14 21 mph 1005mb 49f 51f
9:30 14 20 mph 1005mb 49f 51f
9:24 10 20 mph 1004.9mb 49f 51f
9:18 11 20 mph 1005mb 49f 51f
9:12 14 23 mph 1004.9mb 49f 51f
9:06 16 22 mph 1004.9mb 49f 51f
9:00 17 29 mph 1004.9mb 49f 51f
8:54 15 25 mph 1004.8mb 49f 52f
8:48 14 24 mph 1004.9mb 49f 52f
8:36 10 17 mph 1004.8mb 49f 52f
8:30 9 15 mph 1004.8mb 49f 52f
8:24 10 13 mph 1004.8mb 49f 52f
8:18 7 11 mph 1004.9mb 49f 52f
8:12 7 10 mph 1005mb 49f 52f
8:06 8 16 mph 1004.9mb 49f 52f
8:00 8 14 mph 1004.9mb 49f 52f
7:54 8 14 mph 1004.9mb 49f 52f
7:48 8 14 mph 1004.9mb 49f 53f
7:36 9 15 mph 1004.9mb 49f 53f
7:30 9 17 mph 1004.9mb 49f 53f
7:24 10 14 mph 1005mb 49f 53f
7:18 8 16 mph 1005mb 49f 53f
7:12 10 18 mph 1005.1mb 49f 53f
7:06 8 17 mph 1005mb 49f 53f
7:00 13 20 mph 1005.1mb 49f 53f
6:54 11 20 mph 1005.1mb 49f 53f
6:48 9 14 mph 1005.1mb 49f 53f
6:36 9 15 mph 1005.1mb 49f 53f
6:30 11 15 mph 1005.2mb 49f 53f
6:24 10 16 mph 1005.2mb 49f 53f
6:18 8 13 mph 1005.1mb 49f 53f
6:12 10 15 mph 1005.1mb 49f 53f
6:06 10 15 mph 1005.1mb 49f 53f
6:00 8 15 mph 1005mb 49f 53f
5:54 11 18 mph 1005mb 49f 52f
5:48 10 16 mph 1005mb 48f 52f
5:36 11 16 mph 1005.1mb 48f 52f
5:30 13 18 mph 1005.1mb 48f 52f
5:24 13 18 mph 1005.1mb 48f 52f
5:18 13 18 mph 1005.2mb 48f 52f
5:12 13 18 mph 1005.2mb 48f 51f
5:06 14 21 mph 1005.3mb 48f 51f
5:00 14 21 mph 1005.3mb 48f 52f
4:36 15 22 mph 1005.4mb 48f 51f
4:30 18 24 mph 1005.5mb 48f 51f
4:24 15 21 mph 1005.5mb 48f 51f
4:18 14 23 mph 1005.6mb 48f 52f
4:12 15 26 mph 1005.6mb 48f 52f
4:06 15 22 mph 1005.6mb 48f 51f
4:00 15 25 mph 1005.5mb 48f 51f
3:54 17 30 mph 1005.5mb 48f 51f
3:48 16 26 mph 1005.4mb 48f 51f
3:36 18 25 mph 1005.2mb 48f 51f
3:30 17 28 mph 1005.2mb 48f 51f
3:24 17 24 mph 1005.3mb 48f 51f
3:18 16 25 mph 1005.3mb 48f 51f
3:12 16 25 mph 1005.2mb 48f 51f
3:06 21 30 mph 1005.2mb 48f 51f
3:00 21 28 mph 1005.1mb 48f 51f
2:54 17 25 mph 1005.1mb 48f 51f
2:48 18 30 mph 1005.1mb 48f 51f
2:36 20 32 mph 1005.1mb 48f 51f
2:30 18 30 mph 1005.1mb 48f 51f
2:24 16 26 mph 1005mb 48f 51f
2:18 18 29 mph 1005mb 48f 51f
2:12 16 28 mph 1005mb 48f 51f
2:06 15 22 mph 1004.9mb 48f 51f
2:00 18 29 mph 1005mb 48f 51f
1:54 17 29 mph 1005mb 48f 51f
1:48 21 30 mph 1005mb 48f 51f
1:36 18 28 mph 1004.9mb 48f 51f
1:30 16 30 mph 1004.8mb 48f 52f
1:24 20 29 mph 1004.9mb 48f 52f
1:18 16 23 mph 1004.8mb 48f 51f
1:12 14 26 mph 1004.6mb 48f 51f
1:06 16 25 mph 1004.7mb 48f 51f
1:00 14 29 mph 1004.7mb 48f 51f
12:54 15 24 mph 1004.7mb 48f 50f
12:48 16 24 mph 1004.7mb 48f 50f
12:36 15 25 mph 1004.7mb 48f 50f
12:30 13 21 mph 1004.8mb 48f 50f
12:24 15 22 mph 1004.8mb 48f 50f
12:18 14 23 mph 1004.8mb 48f 50f
12:12 14 22 mph 1004.9mb 48f 50f
12:06 11 21 mph 1004.8mb 48f 50f
12:00 14 21 mph 1004.7mb 48f 50f
11:54 13 20 mph 1004.7mb 48f 51f
11:48 10 15 mph 1004.6mb 48f 51f
11:36 10 14 mph 1004.5mb 48f 51f
11:30 8 11 mph 1004.5mb 48f 50f
11:24 9 11 mph 1004.5mb 48f 50f
11:18 9 13 mph 1004.4mb 48f 50f
11:12 11 14 mph 1004.4mb 48f 49f
11:06 11 14 mph 1004.4mb 48f 49f
11:00 9 13 mph 1004.4mb 48f 49f
10:54 10 13 mph 1004.3mb 48f 49f
10:48 13 15 mph 1004.2mb 49f 49f
10:36 10 14 mph 1004.1mb 48f 48f
10:30 10 14 mph 1004.2mb 48f 48f
10:24 11 15 mph 1004.2mb 48f 48f
10:18 11 15 mph 1004.1mb 48f 48f
10:12 10 14 mph 1004.1mb 48f 48f
10:06 9 14 mph 1004.1mb 48f 48f
10:00 13 15 mph 1004.2mb 48f 48f
9:54 13 17 mph 1004.1mb 48f 48f
9:48 15 18 mph 1004.1mb 48f 48f
9:36 11 15 mph 1003.9mb 49f 48f
9:30 11 14 mph 1003.9mb 49f 47f
9:24 13 16 mph 1003.9mb 49f 47f
9:18 13 17 mph 1004mb 49f 46f
9:12 15 17 mph 1004mb 49f 46f
9:06 15 17 mph 1004mb 49f 46f
9:00 13 15 mph 1004mb 49f 46f
8:54 13 17 mph 1004.2mb 49f 46f
8:48 15 20 mph 1004.2mb 49f 46f
8:36 14 20 mph 1003.9mb 49f 46f
8:30 14 16 mph 1003.9mb 49f 46f
8:24 14 18 mph 1003.9mb 49f 46f
8:18 16 22 mph 1003.7mb 49f 46f
8:12 17 22 mph 1004mb 49f 46f
8:06 16 20 mph 1004.2mb 49f 46f
8:00 15 18 mph 1004.2mb 49f 46f
7:54 14 20 mph 1004.3mb 49f 46f
7:48 17 20 mph 1004.3mb 49f 46f
7:36 14 17 mph 1004.3mb 49f 45f
7:30 16 20 mph 1004.3mb 49f 45f
7:24 17 21 mph 1004.5mb 49f 45f
7:18 16 20 mph 1004.5mb 49f 45f
7:12 15 18 mph 1004.5mb 49f 45f
7:06 15 17 mph 1004.3mb 49f 45f
7:00 16 18 mph 1004.4mb 49f 45f
6:54 15 20 mph 1004.5mb 49f 45f
6:48 16 21 mph 1004.5mb 49f 45f
6:36 15 18 mph 1004.5mb 49f 45f
6:30 11 15 mph 1004.5mb 49f 45f
6:24 11 16 mph 1004.5mb 49f 45f
6:18 11 15 mph 1004.6mb 49f 45f
6:12 13 17 mph 1004.7mb 49f 45f
6:06 15 17 mph 1004.8mb 49f 45f
6:00 14 17 mph 1004.7mb 49f 45f
5:54 16 18 mph 1004.8mb 49f 45f
5:48 16 18 mph 1004.9mb 49f 45f
5:36 13 18 mph 1004.9mb 49f 45f
5:30 15 17 mph 1004.9mb 49f 46f
5:24 13 16 mph 1005mb 49f 46f
5:18 11 16 mph 1004.9mb 49f 46f
5:12 14 17 mph 1005mb 49f 46f
5:06 15 18 mph 1005mb 49f 46f
5:00 14 18 mph 1005.1mb 49f 46f
4:54 14 16 mph 1005.2mb 49f 46f
4:48 10 14 mph 1005.2mb 49f 46f
4:36 11 15 mph 1005.2mb 48f 46f
4:30 13 15 mph 1005.2mb 48f 46f
4:24 14 16 mph 1005.2mb 48f 46f
4:18 11 15 mph 1005.3mb 48f 46f
4:12 11 15 mph 1005.3mb 48f 46f
4:06 13 16 mph 1005.3mb 48f 46f
4:00 13 17 mph 1005.4mb 48f 46f
3:54 14 17 mph 1005.5mb 48f 46f
3:48 13 16 mph 1005.5mb 48f 46f
3:36 15 21 mph 1005.5mb 48f 46f
3:30 14 17 mph 1005.6mb 48f 46f
3:24 13 17 mph 1005.8mb 48f 46f
3:18 14 17 mph 1005.9mb 48f 46f
3:12 15 18 mph 1006mb 48f 46f
3:06 14 18 mph 1006.1mb 48f 45f
3:00 15 18 mph 1006.2mb 48f 45f
2:54 15 20 mph 1006.1mb 48f 45f
2:48 15 20 mph 1006.2mb 48f 45f
2:36 11 15 mph 1006.1mb 48f 45f
2:30 15 20 mph 1006.2mb 48f 45f
2:24 15 21 mph 1006.3mb 48f 45f
2:18 17 22 mph 1006.3mb 48f 45f
2:12 18 23 mph 1006.3mb 48f 45f
2:06 16 22 mph 1006.2mb 48f 45f
2:00 17 22 mph 1006.2mb 48f 45f
1:54 17 21 mph 1006.4mb 48f 45f
1:48 17 22 mph 1006.4mb 48f 46f
1:36 18 23 mph 1006.4mb 48f 46f
1:30 16 20 mph 1006.4mb 48f 46f
1:24 17 23 mph 1006.3mb 48f 46f
1:18 20 24 mph 1006.3mb 48f 46f
1:12 16 21 mph 1006.6mb 48f 46f
1:06 16 21 mph 1006.7mb 48f 46f
1:00 15 22 mph 1006.8mb 48f 46f
12:54 21 24 mph 1006.8mb 48f 46f
12:48 20 23 mph 1006.9mb 48f 46f
12:36 16 20 mph 1007.1mb 48f 46f
12:30 16 20 mph 1007.2mb 48f 46f
12:24 15 21 mph 1007.2mb 48f 46f
12:18 16 21 mph 1007.3mb 48f 46f
12:12 16 22 mph 1007.3mb 48f 46f
12:06 17 22 mph 1007.4mb 48f 47f
12:00 16 22 mph 1007.5mb 48f 47f
Mo 03/20 11:54 17 21 mph 1007.6mb 48f 46f
11:48 17 22 mph 1007.8mb 48f 46f
11:36 17 23 mph 1007.8mb 48f 47f
11:30 15 20 mph 1007.8mb 48f 46f
11:24 16 23 mph 1007.8mb 48f 46f
11:18 17 22 mph 1007.8mb 48f 47f
11:12 17 23 mph 1007.8mb 48f 46f
11:06 17 22 mph 1007.9mb 48f 46f
11:00 18 22 mph 1007.9mb 48f 46f
10:54 21 23 mph 1008mb 48f 46f
10:48 18 26 mph 1008mb 48f 46f
10:36 21 28 mph 1008.2mb 48f 46f
10:30 18 28 mph 1008.3mb 48f 46f
10:24 22 26 mph 1008.4mb 49f 46f
10:18 20 25 mph 1008.5mb 49f 46f
10:12 21 25 mph 1008.6mb 49f 46f
10:06 20 26 mph 1008.5mb 49f 46f
10:00 21 28 mph 1008.6mb 49f 46f
9:54 21 28 mph 1008.7mb 49f 46f
9:48 17 26 mph 1008.7mb 48f 46f
9:36 23 30 mph 1008.7mb 49f 46f
9:30 22 28 mph 1008.9mb 49f 46f
9:24 22 28 mph 1009mb 49f 46f
9:18 23 26 mph 1009mb 49f 46f
9:12 22 26 mph 1009.1mb 48f 46f
9:06 21 25 mph 1009.2mb 48f 46f
9:00 22 26 mph 1009.3mb 49f 46f
8:54 22 25 mph 1009.4mb 48f 46f
8:48 22 26 mph 1009.4mb 48f 46f
8:36 20 25 mph 1009.4mb 48f 46f
8:30 20 26 mph 1009.3mb 49f 46f
8:24 21 26 mph 1009.3mb 49f 46f
8:18 18 26 mph 1009.5mb 49f 46f
8:12 17 23 mph 1009.5mb 49f 46f
8:06 18 23 mph 1009.6mb 49f 46f
8:00 17 23 mph 1009.7mb 49f 46f
7:54 21 24 mph 1009.7mb 49f 46f
7:48 20 22 mph 1009.8mb 49f 46f
7:36 17 22 mph 1009.9mb 49f 46f
7:30 17 22 mph 1009.9mb 49f 46f
7:24 17 23 mph 1010mb 49f 46f
7:18 18 24 mph 1009.9mb 49f 46f
7:12 21 25 mph 1009.9mb 49f 47f
7:06 21 24 mph 1009.9mb 49f 47f
7:00 17 22 mph 1010mb 49f 46f
6:54 21 26 mph 1010mb 49f 46f
6:48 18 26 mph 1010mb 49f 46f
6:36 17 22 mph 1010.1mb 49f 47f
6:30 15 21 mph 1010.2mb 49f 47f
6:24 15 20 mph 1010.2mb 49f 47f
6:18 13 17 mph 1010.2mb 49f 48f
6:12 14 18 mph 1010.3mb 48f 48f
6:06 14 16 mph 1010.3mb 48f 48f
6:00 14 18 mph 1010.4mb 48f 48f
5:54 15 17 mph 1010.4mb 48f 48f
5:48 13 17 mph 1010.5mb 48f 48f
5:36 14 16 mph 1010.5mb 48f 47f
5:30 14 18 mph 1010.5mb 48f 47f
5:24 14 17 mph 1010.5mb 48f 47f
5:18 14 20 mph 1010.6mb 48f 48f
5:12 16 20 mph 1010.6mb 47f 48f
5:06 16 21 mph 1010.6mb 47f 48f
5:00 18 22 mph 1010.6mb 47f 48f
4:54 20 23 mph 1010.6mb 47f 48f
4:48 18 22 mph 1010.6mb 47f 48f
4:36 17 21 mph 1010.7mb 47f 48f
4:30 15 18 mph 1010.8mb 47f 48f
4:24 13 20 mph 1010.9mb 47f 48f
4:18 15 20 mph 1010.9mb 47f 48f
4:12 15 18 mph 1010.9mb 47f 48f
4:06 17 21 mph 1011mb 47f 48f
4:00 15 23 mph 1011mb 47f 48f
3:54 17 24 mph 1011mb 47f 48f
3:48 17 23 mph 1011.1mb 47f 49f
3:36 17 21 mph 1011.1mb 47f 49f
3:30 16 21 mph 1011.2mb 47f 49f
3:24 13 18 mph 1011.2mb 47f 48f
3:18 13 17 mph 1011.3mb 47f 48f
3:12 13 18 mph 1011.3mb 47f 48f
3:06 15 20 mph 1011.2mb 47f 48f
3:00 14 18 mph 1011.2mb 47f 48f
2:54 15 20 mph 1011.3mb 47f 47f
2:48 17 22 mph 1011.5mb 47f 47f
2:36 17 21 mph 1011.7mb 47f 47f
2:30 18 22 mph 1011.8mb 47f 47f
2:24 17 21 mph 1011.9mb 47f 47f
2:18 18 21 mph 1012mb 47f 47f
2:12 17 21 mph 1012mb 47f 47f
2:06 16 21 mph 1012.2mb 47f 47f
2:00 17 22 mph 1012.3mb 47f 47f
1:54 17 22 mph 1012.3mb 47f 47f
1:48 18 23 mph 1012.4mb 47f 47f
1:36 16 22 mph 1012.4mb 47f 48f
1:30 17 23 mph 1012.5mb 47f 48f
1:24 17 23 mph 1012.5mb 47f 48f
1:18 14 20 mph 1012.6mb 47f 48f
1:12 17 22 mph 1012.6mb 47f 48f
1:06 14 20 mph 1012.6mb 47f 48f
1:00 14 18 mph 1012.7mb 47f 48f
12:54 14 18 mph 1012.8mb 47f 47f
12:48 14 17 mph 1012.9mb 47f 47f
12:36 15 22 mph 1012.9mb 47f 47f
12:30 17 21 mph 1012.9mb 47f 47f
12:24 14 21 mph 1013mb 47f 48f
12:18 18 22 mph 1013mb 47f 48f
12:12 17 22 mph 1012.9mb 47f 48f
12:06 18 22 mph 1013mb 47f 47f
12:00 17 25 mph 1013.1mb 47f 48f
11:54 22 28 mph 1013mb 47f 48f
11:48 22 30 mph 1013.1mb 47f 48f
11:36 22 30 mph 1013.1mb 47f 48f
11:30 22 25 mph 1013.1mb 47f 47f
11:24 23 30 mph 1013.1mb 47f 48f
11:18 22 26 mph 1013.1mb 47f 47f
11:12 22 28 mph 1013.2mb 47f 47f
11:06 26 32 mph 1013.1mb 47f 48f
11:00 23 33 mph 1013mb 47f 47f
10:54 24 33 mph 1013.1mb 47f 47f
10:48 28 34 mph 1013.1mb 47f 47f
10:36 25 32 mph 1013.2mb 47f 47f
10:30 23 33 mph 1013.1mb 47f 47f
10:24 26 34 mph 1013.1mb 48f 47f
10:18 30 36 mph 1013.2mb 48f 47f
10:12 28 36 mph 1013.2mb 48f 47f
10:06 25 31 mph 1013.2mb 48f 47f
10:00 26 33 mph 1013.4mb 48f 47f
9:54 24 31 mph 1013.6mb 48f 47f
9:48 24 31 mph 1013.6mb 48f 47f
9:36 23 29 mph 1013.6mb 47f 47f
9:30 29 36 mph 1013.6mb 47f 47f
9:24 25 32 mph 1013.5mb 47f 47f
9:18 23 32 mph 1013.5mb 47f 47f
9:12 22 31 mph 1013.4mb 47f 47f
9:06 23 29 mph 1013.6mb 48f 46f
9:00 22 30 mph 1013.5mb 48f 46f
8:54 23 30 mph 1013.6mb 48f 46f
8:48 22 29 mph 1013.6mb 48f 45f
8:36 21 30 mph 1013.9mb 49f 45f
8:30 24 30 mph 1013.9mb 48f 45f
8:24 22 29 mph 1014.1mb 48f 45f
8:18 24 31 mph 1014.1mb 48f 45f
8:12 24 32 mph 1014.1mb 48f 45f
8:06 22 31 mph 1014.1mb 48f 45f
8:00 24 31 mph 1014mb 48f 45f
7:54 24 31 mph 1013.9mb 48f 45f
7:48 23 31 mph 1014mb 49f 45f
7:36 22 30 mph 1014.1mb 48f 45f
7:30 24 31 mph 1014.1mb 48f 45f
7:24 21 31 mph 1014.1mb 48f 45f
7:18 24 31 mph 1014.2mb 49f 45f
7:12 24 33 mph 1014.2mb 49f 45f
7:06 24 31 mph 1014.2mb 49f 45f
7:00 28 33 mph 1014.2mb 49f 45f
6:54 23 29 mph 1014.3mb 49f 45f
6:48 23 32 mph 1014.3mb 49f 45f
6:36 23 32 mph 1014.5mb 49f 45f
6:30 23 31 mph 1014.5mb 49f 45f
6:24 24 34 mph 1014.5mb 49f 45f
6:18 25 34 mph 1014.4mb 49f 45f
6:12 26 36 mph 1014.4mb 49f 45f
6:06 25 33 mph 1014.4mb 49f 45f
6:00 26 32 mph 1014.5mb 49f 45f
5:54 25 36 mph 1014.7mb 49f 45f
5:48 24 32 mph 1014.6mb 49f 44f
5:36 26 33 mph 1014.7mb 49f 44f
5:30 25 34 mph 1014.8mb 49f 44f
5:24 26 34 mph 1014.9mb 49f 44f
5:18 26 36 mph 1014.9mb 49f 44f
5:12 29 34 mph 1015mb 49f 44f
5:06 30 36 mph 1015mb 49f 44f
5:00 25 34 mph 1015.2mb 49f 44f
4:54 25 33 mph 1015.3mb 49f 44f
4:48 28 36 mph 1015.4mb 49f 44f
4:36 26 32 mph 1015.5mb 48f 44f
4:30 25 33 mph 1015.6mb 48f 44f
4:24 24 31 mph 1015.8mb 48f 44f
4:18 23 31 mph 1015.9mb 48f 44f
4:12 22 30 mph 1016mb 48f 44f
4:06 21 30 mph 1016.1mb 48f 44f
4:00 23 29 mph 1016.3mb 48f 44f
3:54 21 26 mph 1016.3mb 48f 44f
3:48 21 28 mph 1016.4mb 48f 44f
3:36 18 25 mph 1016.6mb 48f 44f
3:30 22 29 mph 1016.7mb 48f 44f
3:24 22 26 mph 1016.8mb 48f 44f
3:18 15 23 mph 1016.8mb 48f 43f
3:12 16 24 mph 1016.9mb 48f 43f
3:06 23 26 mph 1017mb 48f 44f
3:00 20 25 mph 1017.1mb 48f 44f
2:54 18 26 mph 1017.2mb 48f 43f
2:48 20 25 mph 1017.3mb 48f 43f
2:36 18 22 mph 1017.5mb 48f 43f
2:30 18 23 mph 1017.6mb 48f 43f
2:24 17 24 mph 1017.6mb 48f 43f
2:18 18 22 mph 1017.6mb 48f 43f
2:12 16 23 mph 1017.7mb 48f 43f
2:06 16 21 mph 1017.6mb 48f 43f
2:00 18 22 mph 1017.7mb 48f 44f
1:54 17 22 mph 1017.8mb 48f 44f
1:48 16 21 mph 1017.9mb 48f 43f
1:36 14 20 mph 1018mb 49f 43f
1:30 15 18 mph 1018.2mb 49f 43f
1:24 15 20 mph 1018.3mb 49f 43f
1:18 14 18 mph 1018.4mb 48f 43f
1:12 11 21 mph 1018.5mb 48f 43f
1:06 16 20 mph 1018.6mb 48f 43f
1:00 17 21 mph 1018.6mb 48f 43f
12:54 14 17 mph 1018.7mb 48f 43f
12:48 17 21 mph 1018.7mb 48f 43f
12:36 13 17 mph 1018.9mb 48f 43f
12:30 16 21 mph 1019mb 48f 43f
12:24 15 20 mph 1019mb 48f 43f
12:18 13 18 mph 1019.1mb 48f 43f
12:12 16 20 mph 1019.2mb 48f 43f
12:06 16 23 mph 1019.1mb 48f 43f